Probability
0 0 0 0 0 0 0 0 0 0 0 0 0 0 0 0 0 0 0 0 0 0 0 0 0 0 0 0 0 0 0 0 0 0 0 0 0 0 0 0 0 0 0 0
0 0 0 0 0 0 0 0 0 0 0 0 0 0 0 0 0 0 0 0 0 0 0 0 0 0 0 0 0 0 0 0 0 0 0 0 0 0 0 0 0 0 0 0
0 0 0 0 0 0 0 0 0 0 0 0 0 0 0 0 0 0 0 0 0 0 0 0 0 0 0 0 0 0 0 0 0 0 0 0 0 0 0 0 0 0 0 0
0 0 0 0 0 0 0 0 0 0 0 0 0 0 0 0 0 0 0 0 0 0 0 0 0 0 0 0 0 0 0 0 0 0 0 0 0 0 0 0 0 0 0 0
0 0 0 0 0 0 0 0 0 0 0 0 0 0 0 0 0 0 0 0 0 0 0 0 0 0 0 0 0 0 0 0 0 0 0 0 0 0 0 0 0 0 0 0
0 0 0 0 0 0 0 0 0 0 0 0 0 0 0 0 0 0 0 0 0 0 0 0 0 0 0 0 0 0 0 0 0 0 0 0 0 0 0 0 0 0 0 0
0 0 0 0 0 0 0 0 0 0 0 0 0 0 0 0 0 0 0 0 0 0 0 0 0 0 0 0 0 0 0 0 0 0 0 0 0 0 0 0 0 0 0 0
0 0 0 0 0 0 0 0 0 0 0 0 0 0 0 0 0 0 0 0 0 0 0 0 0 0 0 0 0 0 0 0 0 0 0 0 0 0 0 0 0 0 0 0
0 0 0 0 0 0 0 0 0 0 0 0 0 0 0 0 0 0 0 0 0 0 0 0 0 0 0 0 0 0 0 0 0 0 0 0 0 0 0 0 0 0 0 0
0 0 0 0 0 0 0 0 0 0 0 0 0 0 0 0 0 0 0 0 0 0 0 0 0 0 0 0 0 0 0 0 0 0 0 0 0 0 0 0 0 0 0 0
0 0 0 0 0 0 0 0 0 0 0 0 0 0 0 0 0 0 0 0 0 0 0 0 0 0 0 0 0 0 0 0 0 0 0 0 0 0 0 0 0 0 0 0
0 0 0 0 0 0 0 0 0 0 0 0 0 0 0 0 0 0 0 0 0 0 0 0 0 0 0 0 0 0 0 0 0 0 0 0 0 0 0 0 0 0 0 0
0 0 0 0 0 0 0 0 0 0 0 0 0 0 0 0 0 0 0 0 0 0 0 0 0 0 0 0 0 0 0 0 0 0 0 0 0 0 0 0 0 0 0 0
0 0 0 0 0 0 0 0 0 0 0 0 0 0 0 0 0 0 0 0 0 0 0 0 0 0 0 0 0 0 0 0 0 0 0 0 0 0 0 0 0 0 0 0
0 0 0 0 0 0 0 0 0 0 0 0 0 0 0 0 0 0 0 0 0 0 0 0 0 0 0 0 0 0 0 0 0 0 0 0 0 0 0 0 0 0 0 0
0 0 0 0 0 0 0 0 0 0 0 0 0 0 0 0 0 0 0 0 0 0 0 0 0 0 0 0 0 0 0 0 0 0 0 0 0 0 0 0 0 0 0 0
0 0 0 0 0 0 0 0 0 0 0 0 0 0 0 0 0 0 0 0 0 0 0 0 0 0 0 0 0 0 0 0 0 0 0 0 0 0 0 0 0 0 0 0
0 0 0 0 0 0 0 0 0 0 0 0 0 0 0 0 0 0 0 0 0 0 0 0 0 0 0 0 0 0 0 0 0 0 0 0 0 0 0 0 0 0 0 0
0 0 0 0 0 0 0 0 0 0 0 0 0 0 0 0 0 0 0 0 0 0 0 0 0 0 0 0 0 0 0 0 0 0 0 0 0 0 0 0 0 0 0 0
0 0 0 0 0 0 0 0 0 0 0 0 0 0 0 0 0 0 0 0 0 0 0 0 0 0 0 0 0 0 0 0 0 0 0 0 0 0 0 0 0 0 0 0
0 0 0 0 0 0 0 0 0 0 0 0 0 0 0 0 0 0 0 0 0 0 0 0 0 0 0 0 0 0 0 0 0 0 0 0 0 0 0 0 0 0 0 0
0 0 0 0 0 0 0 0 0 0 0 0 0 0 0 0 0 0 0 0 0 0 0 0 0 0 0 0 0 0 0 0 0 0 0 0 0 0 0 0 0 0 0 0
0 0 0 0 0 0 0 0 0 0 0 0 0 0 0 0 0 0 0 0 0 0 0 0 0 0 0 0 0 0 0 0 0 0 0 0 0 0 0 0 0 0 0 0
0 0 0 0 0 0 0 0 0 0 0 0 0 0 0 0 0 0 0 0 0 0 0 0 0 0 0 0 0 0 0 0 0 0 0 0 0 0 0 0 0 0 0 0
0 0 0 0 0 0 0 0 0 0 0 0 0 0 0 0 0 0 0 0 0 0 0 0 0 0 0 0 0 0 0 0 0 0 0 0 0 0 0 0 0 0 0 0
0 0 0 0 0 0 0 0 0 0 0 0 0 0 0 0 0 0 0 0 0 0 0 0 0 0 0 0 0 0 0 0 0 0 0 0 0 0 0 0 0 0 0 0
0 0 0 0 0 0 0 0 0 0 0 0 0 0 0 0 0 0 0 0 0 0 0 0 0 0 0 0 0 0 0 0 0 0 0 0 0 0 0 0 0 0 0 0
Height
5879 5879 5878 5878 5877 5876 5874 5873 5871 5870 5867 5866 5863 5860 5857 5854 5851 5848 5844 5841 5837 5833 5830 5826 5822 5817 5813 5808 5803 5798 5793 5788 5783 5778 5772 5767 5762 5757 5752 5748 5743 5738 5733 5729
5879 5879 5878 5877 5877 5875 5874 5873 5871 5869 5868 5865 5863 5860 5857 5854 5851 5848 5845 5842 5838 5834 5831 5827 5823 5819 5814 5810 5805 5800 5795 5790 5784 5779 5774 5768 5763 5758 5752 5747 5742 5737 5732 5727
5878 5878 5878 5877 5876 5875 5874 5873 5871 5869 5868 5865 5863 5860 5857 5855 5852 5849 5846 5842 5839 5835 5831 5828 5824 5820 5815 5811 5806 5802 5797 5792 5786 5781 5775 5770 5764 5758 5753 5747 5742 5736 5731 5725
5877 5878 5877 5879 5876 5874 5873 5872 5870 5869 5867 5865 5863 5860 5857 5855 5852 5849 5846 5843 5839 5836 5832 5828 5825 5821 5816 5812 5808 5803 5798 5793 5788 5782 5777 5771 5765 5759 5753 5747 5742 5736 5730 5724
5875 5875 5875 5876 5874 5873 5872 5871 5869 5868 5866 5864 5862 5859 5857 5854 5852 5849 5846 5843 5839 5836 5832 5829 5825 5821 5817 5813 5808 5804 5799 5795 5789 5784 5778 5772 5766 5760 5754 5748 5742 5736 5729 5723
5873 5873 5873 5874 5873 5871 5871 5869 5868 5866 5864 5862 5860 5859 5857 5854 5851 5848 5845 5842 5839 5836 5832 5828 5825 5821 5817 5813 5809 5805 5800 5795 5790 5785 5780 5774 5768 5761 5755 5749 5743 5736 5729 5723
5870 5870 5870 5871 5870 5869 5870 5868 5865 5863 5862 5860 5858 5857 5855 5852 5849 5847 5844 5841 5838 5835 5831 5828 5824 5821 5817 5813 5809 5805 5800 5796 5791 5786 5780 5775 5769 5763 5757 5750 5744 5737 5730 5724
5867 5867 5869 5867 5866 5866 5865 5863 5862 5860 5859 5857 5855 5853 5851 5849 5847 5844 5842 5839 5836 5833 5830 5826 5823 5820 5816 5812 5809 5804 5800 5796 5791 5786 5781 5776 5770 5765 5759 5752 5746 5740 5733 5726
5864 5865 5864 5862 5862 5861 5860 5859 5858 5857 5855 5853 5851 5849 5847 5845 5843 5841 5838 5836 5833 5830 5827 5824 5821 5818 5815 5811 5807 5803 5799 5795 5791 5786 5782 5777 5771 5766 5760 5755 5749 5742 5736 5729
5858 5858 5858 5857 5857 5856 5855 5854 5853 5852 5851 5849 5847 5845 5843 5841 5839 5836 5834 5832 5829 5827 5824 5821 5818 5815 5812 5809 5805 5802 5798 5794 5790 5786 5782 5777 5772 5767 5762 5757 5751 5745 5739 5733
5852 5853 5852 5852 5851 5851 5850 5849 5848 5847 5846 5844 5843 5841 5839 5836 5834 5832 5829 5827 5825 5823 5820 5817 5815 5812 5809 5806 5802 5799 5796 5792 5789 5785 5781 5777 5772 5768 5763 5758 5753 5748 5743 5737
5847 5847 5847 5847 5846 5845 5844 5843 5842 5841 5840 5839 5837 5836 5834 5831 5829 5827 5825 5822 5820 5818 5815 5812 5810 5807 5804 5802 5799 5796 5792 5789 5786 5783 5779 5776 5772 5768 5764 5760 5755 5750 5745 5740
5840 5840 5840 5840 5839 5838 5838 5837 5836 5835 5833 5832 5831 5830 5828 5826 5824 5821 5819 5817 5815 5812 5809 5807 5804 5801 5798 5796 5794 5791 5788 5786 5783 5780 5777 5774 5770 5767 5763 5760 5756 5752 5747 5743
5832 5833 5832 5832 5832 5831 5830 5829 5828 5827 5826 5825 5824 5822 5821 5819 5817 5814 5812 5810 5808 5805 5802 5800 5798 5795 5792 5790 5788 5786 5783 5781 5778 5776 5773 5771 5768 5765 5762 5759 5756 5752 5748 5745
5824 5824 5824 5823 5823 5822 5822 5821 5820 5819 5817 5816 5815 5813 5812 5810 5808 5805 5803 5801 5799 5797 5794 5792 5790 5787 5784 5783 5782 5780 5777 5775 5773 5771 5768 5766 5764 5762 5759 5756 5754 5751 5748 5745
5814 5814 5813 5813 5813 5812 5811 5810 5809 5808 5806 5805 5803 5802 5800 5798 5797 5795 5793 5791 5789 5787 5784 5782 5781 5778 5776 5775 5773 5772 5770 5768 5766 5764 5762 5761 5759 5757 5755 5753 5751 5749 5746 5744
5803 5803 5802 5802 5801 5800 5799 5798 5797 5796 5795 5793 5791 5790 5788 5786 5784 5782 5780 5778 5776 5774 5773 5771 5769 5767 5765 5764 5763 5762 5761 5760 5758 5757 5755 5753 5752 5751 5749 5748 5746 5744 5743 5741
5791 5791 5790 5790 5789 5788 5787 5786 5785 5783 5782 5780 5779 5777 5775 5773 5772 5770 5768 5766 5764 5761 5759 5758 5756 5755 5753 5751 5750 5750 5750 5749 5749 5748 5747 5745 5744 5743 5742 5741 5740 5739 5738 5736
5778 5778 5778 5777 5776 5775 5774 5773 5771 5770 5769 5767 5766 5764 5762 5761 5759 5757 5755 5754 5752 5750 5748 5745 5743 5741 5739 5738 5736 5736 5736 5736 5736 5736 5735 5735 5734 5733 5733 5732 5732 5731 5730 5730
5763 5764 5764 5763 5763 5762 5761 5760 5759 5758 5756 5755 5753 5751 5750 5748 5746 5744 5742 5739 5737 5736 5734 5732 5730 5728 5726 5724 5722 5721 5720 5721 5721 5721 5722 5722 5722 5722 5722 5722 5721 5721 5721 5721
5749 5750 5750 5751 5750 5750 5749 5748 5747 5746 5745 5743 5742 5740 5738 5735 5733 5731 5728 5726 5723 5720 5718 5716 5715 5713 5711 5709 5707 5705 5704 5704 5704 5704 5705 5706 5707 5708 5708 5709 5709 5710 5710 5711
5736 5737 5738 5738 5739 5738 5738 5737 5736 5734 5733 5731 5730 5728 5725 5723 5720 5717 5714 5711 5709 5706 5703 5700 5697 5695 5693 5691 5689 5688 5686 5685 5685 5686 5687 5688 5689 5691 5692 5694 5695 5696 5697 5698
5725 5726 5727 5727 5727 5727 5726 5725 5724 5723 5721 5719 5717 5715 5712 5709 5706 5703 5700 5696 5692 5689 5685 5682 5679 5677 5674 5672 5670 5668 5666 5665 5665 5665 5666 5667 5669 5672 5674 5676 5678 5680 5682 5684
5714 5715 5716 5716 5716 5715 5714 5713 5712 5710 5708 5706 5703 5701 5698 5694 5690 5686 5683 5679 5675 5672 5668 5664 5661 5657 5654 5651 5648 5646 5644 5643 5642 5642 5642 5644 5646 5649 5652 5656 5659 5662 5665 5667
5703 5704 5704 5704 5704 5703 5702 5700 5698 5696 5694 5691 5688 5685 5682 5678 5674 5670 5665 5661 5657 5652 5648 5644 5640 5636 5632 5628 5625 5622 5620 5618 5617 5617 5617 5619 5621 5624 5628 5632 5636 5640 5645 5649
5692 5692 5692 5692 5692 5691 5689 5687 5685 5682 5679 5676 5672 5668 5664 5660 5655 5651 5646 5641 5636 5631 5627 5622 5617 5613 5608 5604 5600 5596 5593 5591 5590 5589 5589 5591 5593 5596 5601 5606 5611 5617 5622 5628
5679 5679 5679 5679 5678 5677 5675 5673 5670 5667 5664 5660 5656 5652 5647 5643 5637 5632 5627 5621 5616 5611 5605 5600 5595 5589 5584 5578 5574 5569 5565 5563 5560 5559 5559 5560 5563 5567 5572 5578 5585 5592 5598 5605
Wind_Speed
1 1 2 4 6 7 8 9 9 10 11 12 12 13 14 15 16 17 18 18 18 18 19 20 21 23 24 25 26 27 27 27 26 26 25 24 23 22 21 20 20 19 18 17
1 1 2 3 5 6 8 9 9 10 11 12 12 13 14 15 16 16 17 17 17 18 18 19 20 22 23 24 25 26 27 27 27 27 27 26 25 24 23 22 22 21 20 18
3 2 2 3 5 6 7 8 9 10 11 11 12 13 14 15 15 16 16 17 17 17 18 19 20 21 22 23 24 25 26 27 28 28 28 28 27 26 25 24 24 23 22 21
5 4 4 4 5 6 7 8 9 10 11 11 12 12 13 14 15 15 16 16 17 17 17 18 19 20 21 22 23 24 25 27 27 28 29 29 29 28 27 26 26 25 24 23
7 7 7 7 7 8 9 9 10 10 11 11 12 12 13 14 14 15 15 16 16 17 18 18 19 20 21 21 22 23 24 26 27 28 28 29 30 29 29 28 28 27 26 25
10 10 10 9 10 10 10 11 11 11 12 12 13 13 14 14 14 15 16 16 17 17 18 18 19 20 20 21 22 22 23 24 26 27 28 29 30 30 30 29 29 29 28 26
12 13 12 12 12 12 13 13 13 14 14 15 15 15 15 15 16 16 16 17 17 18 18 19 19 20 20 21 22 22 23 24 25 26 27 28 29 30 30 30 30 30 29 28
14 15 14 14 14 15 16 16 16 17 17 17 17 18 18 18 18 18 18 19 19 19 19 20 20 20 21 21 22 22 23 23 24 25 26 27 28 29 30 31 30 30 30 29
17 16 16 16 16 17 18 18 19 19 19 20 20 20 20 20 20 20 20 21 21 21 21 21 21 21 21 22 22 22 23 23 24 24 25 26 26 27 28 29 30 30 29 29
19 18 18 18 19 19 20 20 21 21 21 21 21 22 22 23 23 23 23 23 23 23 23 23 23 23 23 23 23 23 23 24 24 24 24 25 25 26 26 27 28 29 28 27
21 20 20 20 21 22 22 23 23 23 22 22 23 23 24 25 25 25 25 25 25 25 25 25 25 25 24 24 24 24 24 24 24 24 24 24 24 25 25 25 26 26 27 26
21 22 22 22 23 23 24 24 25 25 25 25 25 25 26 26 26 27 27 27 27 27 27 27 27 26 26 25 25 25 25 25 25 24 24 24 24 24 23 23 23 23 23 24
24 24 25 25 25 26 26 27 27 28 28 29 29 29 29 29 29 29 29 29 29 29 29 29 29 29 29 27 27 26 26 26 25 25 24 24 24 23 23 22 22 21 21 20
27 28 28 28 29 30 30 31 32 32 33 33 33 33 33 33 33 33 33 33 32 32 32 32 31 32 32 30 29 29 28 28 27 26 25 25 24 23 22 22 21 20 19 18
32 33 33 34 35 35 36 36 37 38 38 38 38 38 38 38 38 38 38 37 37 36 36 36 35 35 35 33 32 31 31 30 29 28 27 26 25 24 23 22 20 19 18 17
37 38 39 40 40 41 41 42 42 43 43 43 43 43 43 42 42 42 42 41 41 40 40 40 39 39 39 37 35 34 33 32 31 30 29 28 27 25 24 23 21 20 18 16
41 42 43 44 44 45 46 47 47 47 47 47 46 46 45 45 44 44 43 43 43 42 42 42 42 42 42 42 40 38 36 35 34 33 32 31 29 28 26 25 23 21 20 18
45 46 46 47 48 49 50 50 50 49 49 48 47 46 45 43 42 42 42 42 43 43 44 44 44 44 45 45 44 43 41 39 37 36 35 34 32 31 29 27 26 24 23 21
48 49 49 50 50 51 50 49 49 48 47 46 45 44 43 42 42 42 42 42 42 43 44 45 45 46 46 47 47 46 45 43 42 40 39 37 36 34 33 31 29 27 26 24
52 52 51 50 49 48 47 45 44 43 42 42 42 42 42 42 43 43 43 44 44 43 44 44 45 46 47 48 49 49 49 48 46 45 44 42 40 39 37 35 33 31 30 28
50 49 47 45 43 42 41 40 40 40 40 40 41 42 42 43 44 45 45 46 47 48 48 48 48 48 48 49 50 51 52 52 51 50 49 47 46 44 42 40 38 36 34 32
42 41 40 39 38 37 37 38 38 39 39 40 41 42 43 44 46 47 48 49 50 50 51 52 52 52 52 52 53 53 54 54 55 54 53 52 51 49 47 45 43 41 39 37
36 36 36 36 36 36 37 37 38 39 40 41 42 44 45 47 48 50 51 52 53 54 55 55 55 55 55 55 55 56 56 57 57 58 58 57 56 55 53 51 49 47 44 42
33 34 34 34 35 36 36 37 39 40 41 43 45 46 48 49 51 53 54 55 55 56 57 57 57 58 58 58 58 58 58 59 60 61 61 61 61 60 59 57 55 53 50 48
33 33 34 35 35 36 38 39 41 42 44 45 47 48 50 52 54 55 56 57 58 59 59 60 60 60 61 61 61 61 61 61 62 63 64 65 65 65 64 63 61 58 55 53
34 35 35 36 37 38 39 41 42 44 45 47 49 51 53 55 57 58 59 60 61 62 63 63 64 64 64 64 63 63 63 62 63 65 66 68 69 69 69 67 66 64 61 58
36 37 38 38 39 40 41 42 44 46 47 49 51 53 54 56 58 59 61 62 63 64 64 65 65 66 66 66 65 65 64 63 62 63 65 68 70 71 70 70 69 67 65 63
Wind_Direction
128 55 37 28 18 11 9 9 10 9 8 7 6 5 6 6 7 7 8 11 13 15 17 18 19 20 20 21 20 20 19 18 16 14 13 11 8 5 1 358 354 350 345 338
205 334 359 6 3 1 359 359 2 3 4 4 4 5 6 7 7 6 7 9 11 13 14 14 16 17 18 18 18 18 18 17 16 15 14 13 11 8 5 1 357 353 350 344
248 283 318 341 343 345 347 349 352 354 357 358 359 1 2 4 4 3 4 6 7 9 10 10 11 12 13 14 15 16 16 16 15 14 14 14 12 10 8 5 2 358 354 348
259 273 291 308 322 328 333 338 344 349 352 353 355 357 359 359 359 359 359 1 2 3 4 5 6 7 8 9 10 11 12 12 12 12 13 13 12 11 9 7 5 2 358 354
264 272 280 289 298 307 313 320 324 330 335 340 344 347 349 350 351 352 354 355 356 357 357 358 359 1 2 3 4 6 7 8 9 10 10 11 11 11 10 9 7 5 2 359
266 271 276 281 287 293 299 304 309 314 319 324 330 334 338 339 341 342 344 346 348 349 351 352 353 353 355 356 358 360 1 3 4 6 8 9 10 10 10 10 9 8 6 5
267 271 274 278 281 285 288 295 299 303 307 311 316 321 324 327 329 332 333 335 337 340 342 344 345 346 347 349 352 353 355 357 359 1 4 6 7 9 10 9 10 10 10 9
268 271 275 278 279 281 286 290 294 298 301 304 308 311 313 316 319 322 324 326 328 331 333 335 336 338 340 343 346 349 350 352 355 357 359 1 4 6 8 9 10 11 12 13
268 271 275 277 279 282 285 288 291 294 296 299 302 305 307 309 312 314 316 318 320 323 325 327 328 330 333 336 338 341 344 347 349 352 354 357 359 2 5 8 9 11 13 15
268 270 272 274 277 279 281 284 287 290 293 296 299 301 303 305 307 309 311 312 314 315 317 319 320 323 325 328 331 334 337 339 342 345 348 351 354 357 0 4 7 10 12 15
269 271 273 274 276 279 282 284 286 289 292 295 298 300 302 304 306 307 308 309 310 311 312 313 314 316 318 322 324 326 329 332 335 337 340 343 347 350 354 359 3 6 10 13
270 272 273 275 277 279 281 284 288 291 293 296 298 300 301 302 303 304 305 306 308 309 309 310 310 311 312 314 317 319 322 324 327 330 333 335 338 342 347 351 356 1 5 10
270 272 274 276 278 280 282 285 287 290 292 294 296 297 298 299 300 301 302 304 305 306 306 306 307 307 307 309 310 312 314 316 319 322 325 327 330 333 336 341 346 352 358 3
271 273 274 276 278 280 282 284 286 288 289 291 292 293 294 296 297 298 299 300 301 301 301 302 303 303 303 306 307 307 308 310 311 314 316 318 321 323 326 330 335 340 346 353
271 273 274 276 277 279 281 283 284 286 288 289 290 291 292 293 294 295 296 296 297 297 297 298 299 299 300 302 304 304 304 304 305 306 308 310 312 313 316 318 322 326 331 338
269 271 273 275 277 279 281 283 284 286 288 289 291 292 292 292 292 293 293 293 293 293 293 293 294 294 295 297 298 298 299 300 300 301 301 302 303 304 306 307 309 311 315 319
269 270 272 274 277 279 281 283 285 287 288 289 290 291 292 292 292 292 292 291 291 290 289 289 289 289 290 290 291 291 292 293 294 295 296 295 296 296 297 297 298 299 300 302
268 270 272 274 276 279 281 282 284 285 287 288 289 290 291 291 292 291 291 291 291 291 290 289 288 287 286 286 286 286 287 287 288 288 289 290 290 289 289 289 289 289 289 289
268 270 272 274 277 279 280 281 283 284 286 287 288 289 290 291 292 292 291 291 290 289 289 289 288 287 286 285 284 283 282 282 281 281 282 282 283 283 282 282 281 280 280 279
268 270 272 274 276 278 279 281 282 284 285 286 288 289 291 292 293 293 293 293 292 291 289 288 287 286 285 284 283 282 281 279 277 276 275 275 276 276 276 276 275 274 273 272
265 267 270 272 274 276 277 279 281 282 284 286 288 290 291 292 293 294 294 294 295 294 293 291 289 287 284 283 281 280 279 277 275 273 271 270 269 269 270 270 269 268 267 266
262 265 267 269 271 273 275 277 280 282 284 286 289 290 292 293 295 295 296 296 295 294 293 292 291 289 287 284 282 279 277 275 274 271 269 267 265 264 264 264 264 263 262 261
261 263 265 267 270 272 275 277 280 282 285 288 290 292 294 295 295 296 296 297 296 296 295 294 292 290 288 285 283 280 277 274 272 270 268 265 263 261 260 260 260 260 259 257
259 262 264 267 270 273 276 279 282 285 288 291 292 294 295 297 297 298 298 298 297 296 296 295 293 292 290 287 285 281 278 274 271 268 265 263 261 258 257 255 255 256 256 255
260 263 265 268 272 275 279 282 285 288 291 293 295 297 298 299 299 300 300 300 300 299 298 297 296 294 292 290 287 284 280 275 271 267 264 261 258 256 254 253 251 250 251 252
262 265 268 271 274 277 281 284 287 290 293 296 298 299 301 302 302 303 303 303 303 302 301 300 299 298 296 294 291 288 283 278 272 267 263 259 256 254 252 250 249 248 247 247
265 268 271 274 277 280 283 286 289 293 295 298 300 301 303 304 304 305 305 305 304 304 304 303 302 301 299 298 295 292 288 283 277 269 263 258 254 251 249 248 247 246 245 244